Location: Bartshausen
(51.8454°N, 9.8167°E)
Time: 23:19:14
(UTC+00:00)

Cosmos 2333 Rocket - Pass Details

Date: 08 November 2025
Orbit: 837 x 865 km, 70.8° (Epoch: 04 December)

Event Time Altitude Azimuth Distance (km) Brightness Sun altitude
Exits shadow 05:21:30 12° 303° (WNW) 2,380 4.0 -10.4°
Maximum altitude 05:24:27 16° 336° (NNW) 2,090 3.9 -10.0°
Drops below altitude 10° 05:27:59 10° 14° (NNE) 2,512 4.7 -9.5°
Sets 05:31:30 0° 35° (NE) 3,455 5.7 -9.0°
